Language selection

My Weather Profile Weather Topics  | 

Atlantic - Labrador: Past 24 Hour Conditions

 

CFB Goose Bay

08:00 PM ADT 12 May 2021
Disclaimer

This table is a summary of hourly weather conditions for the past 24 hours.
Please note that these observations might not always be representative of weather conditions over their associated marine area.

Date / Time
(ADT)
Wind(knots) Conditions Visibility(km) Pressure(kPa) Air tempC) Relative humidity(%) Dew pointC)
12 May 2021
20:00 NNW 11 Cloudy 24 101.4 4 52 -4
19:00 NNW 13 gust 18 Cloudy 24 101.4 4 57 -3
18:00 NNW 16 Cloudy 24 101.4 6 51 -3
17:00 NNW 10 gust 21 Cloudy 24 101.4 5 58 -2
16:00 NW 19 gust 26 Cloudy 24 101.3 6 53 -2
15:00 N 19 gust 26 Cloudy 24 101.3 7 51 -2
14:00 NNW 16 gust 22 Cloudy 24 101.3 6 53 -2
13:00 N 13 gust 24 Cloudy 24 101.3 6 54 -2
12:00 N 12 gust 21 Cloudy 24 101.3 6 59 -1
11:00 NNW 17 gust 22 Cloudy 24 101.4 5 64 -1
10:00 NNE 14 Light Rainshower 19 101.4 4 76 0
9:00 NNW 11 gust 17 Light Snowshower 16 101.4 3 81 0
8:00 NW 9 gust 15 Light Rainshower 13 101.4 2 84 0
7:00 NW 11 Light Rainshower 19 101.4 2 82 0
6:00 NW 11 Light Rainshower 24 101.4 2 86 0
5:00 NW 8 Light Rainshower 13 101.4 2 85 0
4:00 NW 9 Light Snowshower 19 101.4 2 82 -1
3:00 NW 14 gust 19 Light Snowshower 24 101.4 3 72 -2
2:00 NW 11 Cloudy 24 101.4 3 70 -2
1:00 NNW 9 Cloudy 24 101.4 3 70 -2
0:00 NW 7 Cloudy 24 101.5 3 69 -2
11 May 2021
23:00 NW 10 Cloudy 24 101.5 3 69 -2
22:00 NNW 8 gust 15 Cloudy 24 101.5 3 67 -2
21:00 NNW 6 Cloudy 24 101.5 4 68 -2
20:00 N 9 Cloudy 24 101.5 4 63 -2

Zoom-in to make a selection

Map of Atlantic - Labrador marine weather areas Kangiqsualujjuaq Airport Cape Kakkiviak Cape Kiglapait Cartwright Airport CFB Goose Bay Hopedale Mary's Harbour Nain Airport Makkovik Airport Saglek Tukialik Bay
Legend:
buoy Buoy
land station Land Station

Atlantic - Labrador Area

Another Region

What we are doing

Date modified: